www.pogodaiklimat.ru

Погода и климат >> Архив погоды >> Норвегия >> Бё


ПОГОДА в Бё

  • Прогноз погоды в Бё
  • Монитор погоды в Бё

АРХИВ ПОГОДЫ в Бё

Время (UTC), дата Ветер
(напр.,м/с)
 
Видим.   Явления Облачность Т
(С)
Тd
(С)
f
(%)
Тe
(С)
Тes
(С)
Комфортность P
(гПа)
Po
(гПа)
Тmin
(С)
Tmax
(С)
R
(мм)
R24
(мм)
S
(см)
07 12.06 СЗ 3-4
{4}
н/о н/о +7.6 +1.9 67 +5 +5 1029.8 1028.8
08 12.06 СЗ 5-6
{6}
н/о н/о +7.7 +1.1 63 +4 +4 1029.4 1028.4
09 12.06 СЗ 6-7
{7}
н/о н/о +7.8 +1.9 66 +4 +4 1029.2 1028.2
10 12.06 СЗ 6-7
{7}
н/о н/о +8.4 +2.2 65 +5 +5 1028.9 1027.9
11 12.06 СЗ 6-7
{8}
н/о н/о +8.8 +2.6 65 +5 +5 1028.3 1027.3
12 12.06 СЗ 6-7
{8}
н/о н/о +9.2 +3.0 65 +6 +6 1027.8 1026.8
13 12.06 СЗ 6-7
{8}
н/о н/о +9.3 +3.5 67 +6 +6 1027.6 1026.6
14 12.06 СЗ 6-7
{8}
н/о н/о +9.5 +3.7 67 +6 +6 1026.8 1025.9
15 12.06 СЗ 6-8
{8}
н/о н/о +9.4 +3.8 68 +6 +6 1026.2 1025.2
16 12.06 -6
{7}
н/о н/о +10.2 +3.9 65 1025.6 1024.6
17 12.06 С 4-5
{7}
н/о н/о +9.7 +3.7 66 +7 +7 1025.3 1024.3
18 12.06 С 4-5
{8}
н/о н/о +9.1 +3.9 70 +6 +6 1025.0 1024.0 +7.1 +10.4
19 12.06 С 3-4
{5}
н/о н/о +8.6 +3.9 72 +6 +6 1024.6 1023.6
20 12.06 СВ 2-3
{4}
н/о н/о +8.5 +4.3 75 +7 +7 1024.5 1023.5
21 12.06 В 3-5
{5}
н/о н/о +8.2 +4.2 76 +6 +6 1024.0 1023.0
22 12.06 СВ 4-5
{5}
н/о н/о +8.0 +4.2 77 +5 +5 1023.7 1022.8
23 12.06 В 3-5
{6}
н/о н/о +7.5 +4.5 81 +5 +5 1023.4 1022.4
00 13.06 В 3-5
{6}
н/о н/о +7.5 +4.1 79 +5 +5 1023.2 1022.2
01 13.06 СВ 2-3
{5}
н/о н/о +6.3 +3.6 83 +4 +4 1023.0 1022.0
02 13.06 В 5-9
{9}
н/о н/о +8.0 +3.5 73 +4 +4 1022.7 1021.7
03 13.06 СВ 4-7
{9}
н/о н/о +8.8 +3.7 70 +6 +6 1022.4 1021.4
04 13.06 В 6-8
{8}
н/о н/о +9.6 +4.2 69 +6 +6 1022.4 1021.4
05 13.06 С 2-5
{6}
н/о н/о +11.0 +4.5 64 +10 +10 1022.1 1021.1
06 13.06 СВ 3-5
{9}
н/о н/о +12.1 +5.3 63 +11 +11 1022.2 1021.2 +6.2 +12.4
07 13.06 СВ 4-6
{6}
н/о н/о +13.6 +6.0 60 +12 +12 1022.1 1021.1
08 13.06 В 6-8
{8}
н/о н/о +14.6 +6.7 59 +13 +13 1021.9 1020.9
09 13.06 В 7-9
{9}
н/о н/о +15.4 +6.4 55 +14 +14 1021.7 1020.7
10 13.06 В 4-7
{9}
н/о н/о +16.8 +6.3 50 +16 +16 1021.9 1020.9
11 13.06 В 5-6
{8}
н/о н/о +17.2 +6.4 49 +17 +17 1021.8 1020.9
12 13.06 В 5-7
{9}
н/о н/о +18.0 +5.6 44 +18 +18 1021.8 1020.8
13 13.06 В 4-6
{7}
н/о н/о +18.5 +6.7 46 +19 +19 1021.6 1020.6
14 13.06 В 6-7
{7}
н/о н/о +17.6 +6.2 47 +17 +17 1021.3 1020.4
15 13.06 В 4-6
{7}
н/о н/о +18.2 +7.0 48 +18 +18 1021.3 1020.3
16 13.06 В 5-7
{7}
н/о н/о +17.6 +7.4 51 +17 +17 1021.1 1020.2
17 13.06 СВ 5-8
{8}
н/о н/о +16.5 +6.9 53 +16 +16 1021.0 1020.0
18 13.06 СВ 5-7
{8}
н/о н/о +15.4 +6.7 56 +14 +14 1021.1 1020.2 +11.9 +18.8
19 13.06 СВ 5-7
{8}
н/о н/о +14.2 +6.3 59 +13 +13 1021.1 1020.1
20 13.06 СВ 4-6
{9}
н/о н/о +13.3 +5.5 59 +12 +12 1021.3 1020.3
21 13.06 СВ 5-9
{9}
н/о н/о +12.5 +5.0 60 +10 +10 1021.2 1020.2
22 13.06 -4
{9}
н/о н/о +11.7 +5.1 64 1021.5 1020.5
23 13.06 СВ 6-9
{9}
н/о н/о +11.2 +4.9 65 +8 +8 1021.3 1020.3
00 14.06 СВ 5-8
{9}
н/о н/о +11.4 +4.9 64 +9 +9 1021.2 1020.2
01 14.06 СВ 5-8
{8}
н/о н/о +10.7 +5.3 69 +8 +8 1021.0 1020.1
02 14.06 В 6-8
{8}
н/о н/о +11.2 +5.5 68 +8 +8 1020.7 1019.7
03 14.06 В 6-7
{8}
н/о н/о +11.0 +6.0 71 +8 +8 1020.5 1019.5
04 14.06 В 4-6
{8}
н/о н/о +12.2 +6.3 67 +10 +10 1020.2 1019.3
05 14.06 СВ 2-5
{6}
н/о н/о +13.5 +7.3 66 +13 +13 1020.0 1019.1
06 14.06 В 4-6
{8}
н/о н/о +14.0 +7.8 66 +13 +13 1019.9 1018.9 +9.7 +15.4
07 14.06 СВ 2-6
{7}
н/о н/о +14.9 +7.7 62 +15 +15 1019.9 1018.9
08 14.06 ЮВ 2-5
{7}
н/о н/о +15.9 +8.4 61 +16 +16 1019.9 1019.0
09 14.06 СВ 5-8
{8}
н/о н/о +15.4 +7.7 60 +14 +14 1020.0 1019.1
10 14.06 В 4-5
{6}
н/о н/о +16.8 +8.3 57 +16 +16 1020.1 1019.1
11 14.06 СВ 3-6
{7}
н/о н/о +17.2 +7.8 54 +17 +17 1019.8 1018.8
12 14.06 С 2-3
{8}
н/о н/о +18.1 +8.1 52 +19 +19 1019.5 1018.5
13 14.06 С 6-8
{8}
н/о н/о +16.1 +7.6 57 +15 +15 1019.2 1018.2
14 14.06 С 5-7
{9}
н/о н/о +15.6 +6.1 53 +15 +15 1018.9 1017.9
15 14.06 С 5-7
{8}
н/о н/о +14.9 +5.4 53 +14 +14 1018.8 1017.8
16 14.06 С 4-6
{7}
н/о н/о +15.1 +3.3 45 +14 +14 1018.6 1017.7
17 14.06 С 5-7
{7}
н/о н/о +13.6 +2.5 47 +12 +12 1018.4 1017.5
18 14.06 С 3-5
{9}
н/о н/о +13.2 +2.2 47 +12 +12 1018.3 1017.4 +12.5 +18.1
19 14.06 С 2-4
{7}
н/о н/о +12.5 +1.8 48 +12 +12 1018.4 1017.4
20 14.06 С 3-4
{6}
н/о н/о +11.1 +2.4 55 +10 +10 1018.6 1017.7
21 14.06 СЗ 2-3
{4}
н/о н/о +9.8 +2.7 61 +9 +9 1018.5 1017.5
22 14.06 С 2-3
{3}
н/о н/о +9.0 +3.2 67 +8 +8 1018.4 1017.4
23 14.06 ЮЗ 4-5
{5}
н/о н/о +8.7 +4.0 72 +6 +6 1018.2 1017.2
00 15.06 СВ 2-3
{8}
н/о н/о +6.9 +3.7 80 +5 +5 1018.2 1017.2
01 15.06 СВ 3-4
{5}
н/о н/о +7.3 +2.6 72 +5 +5 1018.3 1017.3
02 15.06 С 2-3
{6}
н/о н/о +7.8 +3.1 72 +6 +6 1018.2 1017.2
03 15.06 ЮЗ 1-2
{3}
н/о н/о +8.6 +3.9 72 +8 +8 1018.2 1017.2
04 15.06 В 4-6
{6}
н/о н/о +9.3 +5.5 77 +6 +6 1018.0 1017.0
05 15.06 -4
{5}
н/о н/о +10.0 +4.4 68 1018.0 1017.0
06 15.06 З 4-4
{6}
н/о н/о +9.5 +5.7 77 +7 +7 1018.1 1017.2 +6.6 +13.2
07 15.06 СЗ 3-4
{4}
н/о н/о +10.1 +5.7 74 +8 +8 1018.3 1017.4
08 15.06 З 3-4
{4}
н/о н/о +10.6 +6.2 74 +9 +9 1018.4 1017.4
09 15.06 СЗ 4-5
{5}
н/о н/о +11.1 +7.2 77 +9 +9 1018.7 1017.7
10 15.06 СЗ 3-4
{6}
н/о н/о +11.9 +7.0 72 +10 +10 1018.6 1017.6
11 15.06 З 2-3
{4}
н/о н/о +11.9 +6.2 68 +11 +11 1018.5 1017.6
12 15.06 СЗ 3-4
{6}
н/о н/о +11.5 +6.8 73 +10 +10 1018.6 1017.7
13 15.06 СЗ 6-8
{8}
н/о н/о +10.9 +7.2 78 +8 +8 1018.7 1017.8
14 15.06 СЗ 7-9
{11}
н/о н/о +10.4 +7.1 80 +7 +7 1018.7 1017.7
15 15.06 СЗ 5-6
{8}
н/о н/о +11.0 +7.5 79 +8 +8 1018.8 1017.8
16 15.06 СЗ 5-6
{8}
н/о н/о +10.4 +6.9 79 +7 +7 1018.6 1017.6
17 15.06 ЮВ 4-5
{7}
н/о н/о +10.4 +6.9 79 +8 +8 1018.7 1017.7
18 15.06 Ю 3-3
{11}
н/о н/о +10.0 +6.9 81 +8 +8 1018.4 1017.4 +9.4 +12.1
19 15.06 СЗ 5-6
{6}
н/о н/о +8.2 +6.3 88 +4 +4 1018.3 1017.3
20 15.06 СЗ 5-6
{6}
н/о н/о +7.6 +6.4 92 +4 +4 1018.2 1017.2
21 15.06 С 3-4
{6}
н/о н/о +7.3 +5.8 90 +4 +4 1018.1 1017.1
22 15.06 -3
{4}
н/о н/о +7.2 +5.7 90 1018.2 1017.3
23 15.06 СЗ 2-3
{3}
н/о н/о +7.0 +5.6 91 +5 +5 1018.3 1017.3
00 16.06 С 2-3
{6}
н/о н/о +6.7 +5.8 94 +4 +4 1018.0 1017.0
01 16.06 СЗ 4-5
{5}
н/о н/о +6.5 +5.8 95 +3 +3 1017.9 1016.9
02 16.06 С 3-4
{5}
н/о н/о +6.2 +5.5 95 +3 +3 1017.4 1016.4
03 16.06 -4
{5}
н/о н/о +6.1 +5.5 96 1016.9 1015.9
04 16.06 С 3-4
{4}
н/о н/о +6.4 +5.4 93 +3 +3 1016.7 1015.7
05 16.06 СВ 3-4
{4}
н/о н/о +6.8 +5.4 91 +4 +4 1016.4 1015.4
06 16.06 С 3-4
{5}
н/о н/о +7.2 +5.4 88 +4 +4 1016.3 1015.3 +6.0 +10.1
07 16.06 СВ 2-3
{4}
н/о н/о +7.9 +5.4 84 +6 +6 1016.2 1015.2
08 16.06 В 3-4
{5}
н/о н/о +8.8 +5.6 80 +6 +6 1015.8 1014.8
09 16.06 З 3-4
{5}
н/о н/о +8.7 +5.3 79 +6 +6 1015.6 1014.6
10 16.06 З 2-3
{5}
н/о н/о +9.6 +5.6 76 +8 +8 1014.9 1013.9
11 16.06 З 3-3
{4}
н/о н/о +10.5 +6.5 76 +9 +9 1014.4 1013.4
12 16.06 З 3-4
{5}
н/о н/о +11.1 +6.5 73 +9 +9 1014.2 1013.3
13 16.06 СЗ 3-4
{4}
н/о н/о +12.0 +7.3 73 +10 +10 1013.9 1012.9
14 16.06 СЗ 2-3
{4}
н/о н/о +12.8 +7.9 72 +12 +12 1013.3 1012.4
15 16.06 З 2-3
{3}
н/о н/о +13.3 +7.3 67 +13 +13 1012.7 1011.8
16 16.06 ЮЗ 3-4
{4}
н/о н/о +13.5 +7.5 67 +12 +12 1012.1 1011.1
17 16.06 СЗ 2-3
{4}
н/о н/о +14.2 +8.6 69 +14 +14 1011.6 1010.7
18 16.06 В 5-6
{6}
н/о н/о +13.1 +7.1 67 +11 +11 1011.3 1010.4 +7.2 +14.8
19 16.06 В 3-5
{6}
н/о н/о +12.4 +7.1 70 +11 +11 1011.2 1010.2
20 16.06 СВ 1-3
{5}
н/о н/о +12.1 +7.0 71 +12 +12 1010.5 1009.6
21 16.06 В 4-5
{5}
н/о н/о +11.1 +6.3 72 +9 +9 1010.1 1009.1
22 16.06 СВ 2-4
{6}
н/о н/о +10.1 +6.5 78 +9 +9 1009.8 1008.8
23 16.06 СВ 5-7
{7}
н/о н/о +11.0 +5.3 68 +8 +8 1009.5 1008.6
00 17.06 В 3-6
{7}
н/о н/о +10.4 +5.2 70 +8 +8 1009.5 1008.5
01 17.06 В 4-5
{5}
н/о н/о +9.5 +5.9 78 +7 +7 1009.4 1008.4
02 17.06 СВ 2-3
{5}
н/о н/о +9.4 +6.5 82 +8 +8 1009.4 1008.4
03 17.06 СВ 3-3
{4}
н/о н/о +10.6 +7.3 80 +9 +9 1009.3 1008.3
04 17.06 В 2-3
{3}
н/о н/о +11.5 +6.6 72 +10 +10 1009.3 1008.4
05 17.06 В 2-3
{3}
н/о н/о +12.0 +7.3 73 +11 +11 1009.5 1008.5
06 17.06 В 2-3
{5}
н/о н/о +13.1 +7.8 70 +12 +12 1009.3 1008.4 +8.8 +13.1
07 17.06 Ю 2-2
{3}
н/о н/о +13.3 +7.1 66 +13 +13 1009.6 1008.7
08 17.06 ЮЗ 5-6
{8}
н/о н/о +10.7 +8.8 88 +8 +8 1010.1 1009.1
09 17.06 ЮЗ 5-6
{7}
н/о н/о +10.9 +8.8 87 +8 +8 1010.4 1009.4
10 17.06 З 4-5
{6}
н/о н/о +10.9 +8.1 83 +8 +8 1010.6 1009.6
11 17.06 З 4-5
{5}
н/о н/о +10.5 +8.1 85 +8 +8 1010.9 1009.9
12 17.06 З 3-4
{8}
н/о н/о +10.3 +7.9 85 +8 +8 1011.1 1010.1
13 17.06 ЮЗ 3-4
{4}
н/о н/о +11.3 +7.4 77 +10 +10 1010.9 1010.0
14 17.06 ЮЗ 5-6
{6}
н/о н/о +10.6 +7.1 79 +8 +8 1011.2 1010.2
15 17.06 ЮЗ 5-7
{8}
н/о н/о +10.2 +6.9 80 +7 +7 1011.2 1010.2
16 17.06 З 3-4
{7}
н/о н/о +9.4 +6.8 84 +7 +7 1011.3 1010.3
17 17.06 З 2-3
{3}
н/о н/о +9.0 +6.5 84 +7 +7 1011.2 1010.2
18 17.06 ЮЗ 2-3
{8}
н/о н/о +9.0 +6.6 85 +7 +7 1011.1 1010.1 +8.8 +13.5
19 17.06 ЮЗ 3-4
{6}
н/о н/о +8.8 +6.8 87 +6 +6 1010.9 1010.0
20 17.06 З 2-3
{4}
н/о н/о +8.7 +6.5 86 +7 +7 1010.9 1009.9
21 17.06 ЮЗ 3-4
{4}
н/о н/о +8.8 +6.3 84 +6 +6 1010.9 1009.9
22 17.06 З 3-4
{4}
н/о н/о +8.8 +6.4 85 +6 +6 1010.7 1009.7
23 17.06 ЮЗ 3-4
{5}
н/о н/о +8.7 +6.2 84 +6 +6 1010.5 1009.5
00 18.06 З 2-2
{6}
н/о н/о +8.5 +6.0 84 +7 +7 1010.4 1009.4
01 18.06 штиль 0
{2}
н/о н/о +8.6 +5.9 83 +8 +8 1010.3 1009.3
02 18.06 СВ 1-1
{1}
н/о н/о +8.7 +6.7 87 +8 +8 1009.9 1008.9
03 18.06 Ю 1-2
{2}
н/о н/о +8.7 +6.0 83 +8 +8 1009.8 1008.8
04 18.06 Ю 1-2
{2}
н/о н/о +9.0 +6.3 83 +8 +8 1009.5 1008.5
05 18.06 ЮВ 1-2
{2}
н/о н/о +9.1 +6.4 83 +9 +9 1009.3 1008.3
06 18.06 штиль 0-1
{2}
н/о н/о +10.2 +6.9 80 +10 +10 1009.0 1008.0 +8.5 +10.2
07 18.06 Ю 1-2
{2}
н/о н/о +10.5 +7.2 80 +10 +10 1008.9 1007.9
08 18.06 З 1-2
{2}
н/о н/о +10.3 +7.0 80 +10 +10 1008.7 1007.8
09 18.06 З 2-2
{2}
н/о н/о +10.8 +6.8 76 +10 +10 1008.8 1007.8
10 18.06 СЗ 2-3
{3}
н/о н/о +11.0 +7.5 79 +10 +10 1008.8 1007.8
11 18.06 З 1-2
{2}
н/о н/о +10.8 +7.3 79 +11 +11 1008.7 1007.7
12 18.06 З 3-3
{3}
н/о н/о +10.3 +7.9 85 +8 +8 1009.0 1008.0
13 18.06 СЗ 2-2
{3}
н/о н/о +10.5 +8.3 86 +9 +9 1009.0 1008.1
14 18.06 З 1-1
{2}
н/о н/о +9.7 +8.3 91 +9 +9 1009.3 1008.3
15 18.06 ЮЗ 2-2
{2}
н/о н/о +9.4 +8.3 93 +8 +8 1009.3 1008.4
16 18.06 штиль 0-1
{2}
н/о н/о +9.5 +8.7 95 +9 +9 1009.2 1008.2
17 18.06 Ю 1-1
{2}
н/о н/о +9.4 +8.8 96 +9 +9 1009.0 1008.1
18 18.06 штиль 0-1
{3}
н/о н/о +9.6 +9.0 96 +9 +9 1008.7 1007.7 +9.3 +11.5 4
19 18.06 В 1-2
{2}
н/о н/о +9.6 +9.2 97 +9 +9 1008.5 1007.5
20 18.06 В 3-4
{4}
н/о н/о +9.8 +9.0 95 +7 +7 1008.2 1007.2
21 18.06 В 5-6
{6}
н/о н/о +9.6 +8.2 91 +6 +6 1007.7 1006.7
22 18.06 В 5-6
{6}
н/о н/о +9.7 +8.1 90 +6 +6 1007.4 1006.5
23 18.06 В 4-5
{7}
н/о н/о +9.8 +8.1 89 +7 +7 1007.3 1006.3
00 19.06 В 4-5
{7}
н/о н/о +9.9 +8.0 88 +7 +7 1007.3 1006.3
01 19.06 В 3-4
{6}
н/о н/о +9.8 +7.9 88 +7 +7 1007.4 1006.4
02 19.06 В 2-3
{3}
н/о н/о +10.0 +7.9 87 +8 +8 1007.5 1006.5
03 19.06 В 3-4
{4}
н/о н/о +9.9 +8.2 89 +8 +8 1007.5 1006.5
05 19.06 Ю 1-2
{4}
н/о н/о +10.9 +8.5 85 +11 +11 1007.9 1006.9
06 19.06 ЮЗ 1-2
{6}
н/о н/о +10.9 +9.0 88 +11 +11 1008.1 1007.1 +9.5 +11.0 0.2
07 19.06 СЗ 3-4
{4}
н/о н/о +10.2 +9.0 92 +8 +8 1008.6 1007.6
08 19.06 СЗ 3 н/о н/о +9.5 +8.3 92 +7 +7 1009.0 1008.1

 

Местоположение метеостанции Бё (Норвегия): широта 68.61 долгота 14.43 высота над уровнем моря 8 м.

В архиве по умолчанию представлена погода в Бё за последнюю неделю. Архивные данные за месяц целиком и за предыдущие месяцы, начиная с января 2011 года, Вы можете получить, выбрав интересующий диапазон дат из раскрывающегося списка и нажав кнопку "Ввод!".


*Определитесь, кто Вы:
робот инопланетянин человек

Внимание! Время в таблицах - всемирное. Для получения местного времени необходимо прибавить поправку, которая равна 1 ч.

Смотрите также архив погоды в соседних городах и на ближайших метеорологических станциях:

Погода в Стокмаркнес аэропорту (Норвегия) (25 км)
Погода в Сволваер аэропорту (Норвегия) (41 км)
Погода в Сортланне (Норвегия) (41 км)
Погода на Маяке Skrova (Норвегия) (52 км)
Погода в Лекнесе (Норвегия) (60 км)
Погода на Маяке Rotvaer (Норвегия) (67 км)
Погода в Харстаде (Норвегия) (87 км)
Погода в Драге (Норвегия) (92 км)
Погода в Аэропорту Харстад/Нарвик (Норвегия) (92 км)
Погода на Аннёйа (Норвегия) (102 км)

Пояснения к столбцам:

Ветер - указаны скорость ветра в м/с - средняя за 10 мин, порывы в срок и между сроками (в фигурных скобках) и направление, откуда дует ветер: С - северный, СВ - северо-восточный, В - восточный, ЮВ - юго-восточный, Ю - южный, ЮЗ - юго-западный, З - западный, СЗ - северо-западный.
Видимость - горизонтальная дальность видимости в метрах или километрах. При видимости от 1 до 10 км при отсутствии осадков обычно наблюдается дымка, при ухудшении видимости до 1 км и менее - туман. В сухую погоду видимость может ухудшаться дымом, пылью или мглою.
Явления - указаны атмосферные явления, наблюдавшиеся в срок или в последний час перед сроком; фигурными скобками обозначены явления, наблюдавшиеся между сроками (за 1-3 часа до срока); квадратными скобками обозначены град или гололедные отложения с указанием их диаметра в мм.
Облачность - указаны через наклонную черту общая и нижняя облачность в баллах и высота нижней границы облаков в метрах; квадратными скобками обозначены формы облаков: Ci - перистые, Cs - перисто-слоистые, Cc - перисто-кучевые, Ac - высококучевые, As - высокослоистые, Sc - слоисто-кучевые, Ns - слоисто-дождевые, Cu - кучевые, Cb - кучево-дождевые. Подробнее классификацию облаков см. в Атласе облаков (PDF).
T - Температура воздуха - температура, измеренная на высоте 2 м над землей.
Td - Температура точки росы - температура, при понижении до которой содержащийся в воздухе водяной пар достигнет насыщения.
f - Относительная влажность воздуха - влажноcть воздуха, измеренная на высоте 2 м над землей.
Te - Эффективная температура - температура, которую ощущает одетый по сезону человек в тени. Характеристика душности погоды. При расчете учитывается влияние влажности воздуха и скорости ветра на теплоощущения человека.
Tes - Эффективная температура на солнце - температура, которую ощущает человек, с поправкой на солнечный нагрев. Характеристика знойности погоды. Зависит от высоты солнца над горизонтом, облачности и скорости ветра. Ночью, в пасмурную погоду, а также при ветре 12 м/с и более поправка равна нулю.
P - Атмосферное давление - приведенное к уровню моря атмосферное давление.
Po - Атмосферное давление - измеренное на уровне метеостанции атмосферное давление.
Tmin - Минимальная температура - минимум температуры воздуха на высоте 2 м над землей.
Tmax - Максимальная температура - максимум температуры воздуха на высоте 2 м над землей.
R - Количество осадков - Количество выпавших осадков за период времени, мм. При наведении курсора мыши на число - период времени, за который выпало указанное количество осадков.
R24 - Количество осадков - Количество выпавших осадков за 24 часа, мм.
S - Снежный покров - Высота снежного покрова, см. При наведении курсора мыши на число - состояние снежного покрова и степень покрытия местности в баллах.